"Datum/tijd (MEZT)";"verwachting windsnelheid";"waarneming windsnelheid [m/s]";"verwachting windrichting";"waarneming windrichting [graden]"
2024-04-22 07:00;6.2;5;30;327
2024-04-22 07:10;6.2;5;28;325
2024-04-22 07:20;6.2;5.1;27;15
2024-04-22 07:30;6.2;5.5;25;26
2024-04-22 07:40;6.2;5.5;23;27
2024-04-22 07:50;6.2;5.3;22;28
2024-04-22 08:00;5.1;5.6;20;28
2024-04-22 08:10;5.5;4.8;20;29
2024-04-22 08:20;5.8;4.8;20;30
2024-04-22 08:30;6.2;5.4;20;31
2024-04-22 08:40;6.5;5.5;20;28
2024-04-22 08:50;6.9;6.2;20;29
2024-04-22 09:00;7.2;5.8;20;31
2024-04-22 09:10;7.5;8.5;18;20
2024-04-22 09:20;7.7;7.7;17;15
2024-04-22 09:30;8;7.1;15;15
2024-04-22 09:40;8.3;7.4;13;14
2024-04-22 09:50;8.5;8.1;12;12
2024-04-22 10:00;8.8;7.2;10;19
2024-04-22 10:10;8.6;7.1;13;18
2024-04-22 10:20;8.4;6.6;17;20
2024-04-22 10:30;8.3;6.8;20;10
2024-04-22 10:40;8.1;7.7;23;8
2024-04-22 10:50;7.9;8.1;27;8
2024-04-22 11:00;7.7;8.6;30;4
2024-04-22 11:10;6.9;7.4;85;31
2024-04-22 11:20;6.2;7.3;140;22
2024-04-22 11:30;5.4;7.2;195;28
2024-04-22 11:40;4.6;6.8;250;24
2024-04-22 11:50;3.9;6.7;305;22
2024-04-22 12:00;3.1;6.6;0;26
2024-04-22 12:10;3.5;5.8;305;19
2024-04-22 12:20;4;6.2;250;9
2024-04-22 12:30;4.4;5.7;195;11
2024-04-22 12:40;4.8;4.8;140;11
2024-04-22 12:50;5.3;5.3;85;35
2024-04-22 13:00;5.7;5.5;30;36
2024-04-22 13:10;5.8;5.6;30;27
2024-04-22 13:20;5.9;4.8;30;32
2024-04-22 13:30;6;5.3;30;27
2024-04-22 13:40;6;4.1;30;25
2024-04-22 13:50;6.1;5;30;357
2024-04-22 14:00;6.2;5.6;20;352
2024-04-22 14:10;6.4;7;22;357
2024-04-22 14:20;6.5;7.6;23;27
2024-04-22 14:30;6.7;4.9;25;15
2024-04-22 14:40;6.9;2.8;27;9
2024-04-22 14:50;7;3.4;28;342
2024-04-22 15:00;7.2;4.5;30;5
2024-04-22 15:10;7.4;6;32;37
2024-04-22 15:20;7.5;6.3;33;35
2024-04-22 15:30;7.7;7.1;35;37
2024-04-22 15:40;7.9;7.9;37;49
2024-04-22 15:50;8;6.4;38;36
2024-04-22 16:00;8.2;4.7;40;30
2024-04-22 16:10;8.2;6.8;40;27
2024-04-22 16:20;8.2;7.1;40;31
2024-04-22 16:30;8.2;7.6;40;22
2024-04-22 16:40;8.2;7.4;40;25
2024-04-22 16:50;8.2;7.3;40;24
2024-04-22 17:00;8.2;7.5;40;39
2024-04-22 17:10;8.3;7.1;38;40
2024-04-22 17:20;8.4;6.3;37;29
2024-04-22 17:30;8.5;6.9;35;49
2024-04-22 17:40;8.6;6.7;33;39
2024-04-22 17:50;8.7;7.4;32;36
2024-04-22 18:00;8.8;6.8;30;36
2024-04-22 18:10;8.7;6.6;30;26
2024-04-22 18:20;8.6;6.5;30;39
2024-04-22 18:30;8.5;6.6;30;40
2024-04-22 18:40;8.4;7.2;30;32
2024-04-22 18:50;8.3;7.6;30;29
2024-04-22 19:00;8.2;6.9;30;46
2024-04-22 19:10;8.1;7.5;30;43
2024-04-22 19:20;8;6.6;30;35
2024-04-22 19:30;8;6.5;30;31
2024-04-22 19:40;7.9;6.2;30;37
2024-04-22 19:50;7.8;6.1;30;42
2024-04-22 20:00;7.7;7.5;40;28
2024-04-22 20:10;7.5;6.9;40;32
2024-04-22 20:20;7.4;6.1;40;39
2024-04-22 20:30;7.2;6.2;40;37
2024-04-22 20:40;7;6.4;40;34
2024-04-22 20:50;6.9;5.8;40;34
2024-04-22 21:00;6.7;5;40;35
2024-04-22 21:10;6.6;5.1;40;37
2024-04-22 21:20;6.5;4.5;40;40
2024-04-22 21:30;6.5;5.2;40;39
2024-04-22 21:40;6.4;5.8;40;38
2024-04-22 21:50;6.3;5.4;40;36
2024-04-22 22:00;6.2;5.5;40;37
2024-04-22 22:10;6.2;5.4;42;36
2024-04-22 22:20;6.2;5.4;43;37
2024-04-22 22:30;6.2;5.4;45;36
2024-04-22 22:40;6.2;5.3;47;36
2024-04-22 22:50;6.2;5.4;48;35
2024-04-22 23:00;6.2;5.5;50;35
2024-04-22 23:10;6;5.1;52;32
2024-04-22 23:20;5.8;5.2;53;32
2024-04-22 23:30;5.7;5;55;33
2024-04-22 23:40;5.5;4.9;57;33
2024-04-22 23:50;5.3;4.6;58;34
2024-04-23 00:00;5.1;4.9;60;33
2024-04-23 00:10;5;5.2;58;33
2024-04-23 00:20;4.9;4.8;57;41
2024-04-23 00:30;4.9;4.4;55;41
2024-04-23 00:40;4.8;4.5;53;47
2024-04-23 00:50;4.7;4.7;52;50
2024-04-23 01:00;4.6;5;50;49
2024-04-23 01:10;4.5;4.8;50;47
2024-04-23 01:20;4.4;4.4;50;45
2024-04-23 01:30;4.4;4.1;50;44
2024-04-23 01:40;4.3;4.3;50;43
2024-04-23 01:50;4.2;4.8;50;50
2024-04-23 02:00;4.6;6.3;50;58
2024-04-23 02:10;4.6;6.2;48;60
2024-04-23 02:20;4.6;6.2;47;61
2024-04-23 02:30;4.6;6.1;45;69
2024-04-23 02:40;4.6;5.3;43;63
2024-04-23 02:50;4.6;5.2;42;64
2024-04-23 03:00;4.6;4.5;40;65
2024-04-23 03:10;4.5;3.9;42;51
2024-04-23 03:20;4.4;3.8;43;47
2024-04-23 03:30;4.4;3.4;45;46
2024-04-23 03:40;4.3;3.3;47;43
2024-04-23 03:50;4.2;3.5;48;41
2024-04-23 04:00;4.1;3.5;50;43
2024-04-23 04:10;3.9;3.8;50;39
2024-04-23 04:20;3.8;3.4;50;49
2024-04-23 04:30;3.6;3.5;50;46
2024-04-23 04:40;3.4;3.4;50;44
2024-04-23 04:50;3.3;3.2;50;44
2024-04-23 05:00;3.1;3;50;51
2024-04-23 05:10;3.1;2.8;50;55
2024-04-23 05:20;3.1;2.6;50;43
2024-04-23 05:30;3.1;3;50;38
2024-04-23 05:40;3.1;3.6;50;30
2024-04-23 05:50;3.1;3.7;50;23
2024-04-23 06:00;3.1;3.6;50;24
2024-04-23 06:10;3;3.3;50;19
2024-04-23 06:20;2.9;3.3;50;18
2024-04-23 06:30;2.9;3.1;50;19
2024-04-23 06:40;2.8;3.1;50;17
2024-04-23 06:50;2.7;3.3;50;17
2024-04-23 07:00;2.6;3.3;50;15
2024-04-23 07:10;2.5;3.1;52;20
2024-04-23 07:20;2.4;3;53;23
2024-04-23 07:30;2.4;3;55;24
2024-04-23 07:40;2.3;2.9;57;29
2024-04-23 07:50;2.2;2.8;58;32
2024-04-23 08:00;2.6;3;40;28
2024-04-23 08:10;2.6;3.1;40;22
2024-04-23 08:20;2.6;3.1;40;16
2024-04-23 08:30;2.6;3.1;40;12
2024-04-23 08:40;2.6;3;40;7
2024-04-23 08:50;2.6;2.8;40;3
2024-04-23 09:00;2.6;2.7;40;350
2024-04-23 09:10;2.5;2.6;38;358
2024-04-23 09:20;2.4;2.1;37;5
2024-04-23 09:30;2.4;2.4;35;1
2024-04-23 09:40;2.3;2.1;33;11
2024-04-23 09:50;2.2;1.4;32;4
2024-04-23 10:00;2.1;1.6;30;353
2024-04-23 10:10;2;1.7;27;357
2024-04-23 10:20;1.9;1.7;23;344
2024-04-23 10:30;1.8;1.9;20;338
2024-04-23 10:40;1.7;2.1;17;320
2024-04-23 10:50;1.6;2.3;13;313
2024-04-23 11:00;1.5;2.3;10;304
2024-04-23 11:10;1.5;2.3;60;312
2024-04-23 11:20;1.5;1.9;110;295
2024-04-23 11:30;1.5;2.1;160;289
2024-04-23 11:40;1.5;2.2;210;299
2024-04-23 11:50;1.5;3;260;299
2024-04-23 12:00;1.5;2.4;310;298
2024-04-23 12:10;1.6;2.4;305;279
2024-04-23 12:20;1.7;2.2;300;276
2024-04-23 12:30;1.8;2.1;295;272
2024-04-23 12:40;1.9;2.3;290;266
2024-04-23 12:50;2;2.4;285;253
2024-04-23 13:00;2.1;2.3;280;251
2024-04-23 13:10;2.4;2.9;277;257
2024-04-23 13:20;2.6;3.1;273;255
2024-04-23 13:30;2.9;3.5;270;252
2024-04-23 13:40;3.1;3.5;267;255
2024-04-23 13:50;3.4;3.7;263;248
2024-04-23 14:00;4.1;4.3;260;248
2024-04-23 14:10;4.5;4.5;260;249
2024-04-23 14:20;4.8;4.6;260;261
2024-04-23 14:30;5.2;5.2;260;249
2024-04-23 14:40;5.5;5.6;260;255
2024-04-23 14:50;5.9;6.4;260;248
2024-04-23 15:00;6.2;6.4;260;249
2024-04-23 15:10;6.5;6.3;258;250
2024-04-23 15:20;6.7;6.7;257;253
2024-04-23 15:30;7;7;255;249
2024-04-23 15:40;7.2;7.2;253;250
2024-04-23 15:50;7.5;7.6;252;252
2024-04-23 16:00;7.7;7.7;250;244
2024-04-23 16:10;7.9;7.7;252;237
2024-04-23 16:20;8.1;8.3;253;247
2024-04-23 16:30;8.3;8.4;255;251
2024-04-23 16:40;8.4;8.3;257;248
2024-04-23 16:50;8.6;8.7;258;253
2024-04-23 17:00;8.8;9.5;260;260
2024-04-23 17:10;8.8;9;260;257
2024-04-23 17:20;8.8;10.1;260;264
2024-04-23 17:30;8.8;10.4;260;259
2024-04-23 17:40;8.8;10.4;260;258
2024-04-23 17:50;8.8;10.3;260;256
2024-04-23 18:00;8.8;9.8;260;254
2024-04-23 18:10;8.4;10.1;263;257
2024-04-23 18:20;7.9;10;267;256
2024-04-23 18:30;7.5;9.7;270;257
2024-04-23 18:40;7.1;9.8;273;265
2024-04-23 18:50;6.6;8.4;277;326
2024-04-23 19:00;6.2;9.1;280;344
2024-04-23 19:10;7.1;11;292;341
2024-04-23 19:20;7.9;10.3;303;337
2024-04-23 19:30;8.8;11.8;315;337
2024-04-23 19:40;9.6;12;327;335
2024-04-23 19:50;10.5;11.9;338;336
2024-04-23 20:00;11.3;11.3;340;338
2024-04-23 20:10;11.2;10.2;340;338
2024-04-23 20:20;11.1;10.7;340;343
2024-04-23 20:30;11.1;10.9;340;343
2024-04-23 20:40;11;9.9;340;341
2024-04-23 20:50;10.9;10.6;340;338
2024-04-23 21:00;10.8;10.1;340;341
2024-04-23 21:10;10.7;9.2;340;341
2024-04-23 21:20;10.6;8.7;340;340
2024-04-23 21:30;10.6;9.6;340;338
2024-04-23 21:40;10.5;9.6;340;337
2024-04-23 21:50;10.4;10;340;338
2024-04-23 22:00;10.3;8.1;340;345
2024-04-23 22:10;10.3;9;340;335
2024-04-23 22:20;10.3;9.3;340;331
2024-04-23 22:30;10.3;7.8;340;334
2024-04-23 22:40;10.3;7.7;340;320
2024-04-23 22:50;10.3;9.4;340;341
2024-04-23 23:00;10.3;9.3;340;1
2024-04-23 23:10;10.3;8.6;338;351
2024-04-23 23:20;10.3;8.6;337;344
2024-04-23 23:30;10.3;8.4;335;338
2024-04-23 23:40;10.3;8.8;333;337
2024-04-23 23:50;10.3;8.1;332;341
2024-04-24 00:00;10.3;8.4;330;336
2024-04-24 00:10;10.3;8.2;330;334
2024-04-24 00:20;10.3;8;330;352
2024-04-24 00:30;10.3;8.3;330;356
2024-04-24 00:40;10.3;11.4;330;334
2024-04-24 00:50;10.3;9.1;330;337
2024-04-24 01:00;10.3;6.3;330;338
2024-04-24 01:10;10.2;7.2;332;325
2024-04-24 01:20;10.1;7.5;333;331
2024-04-24 01:30;10.1;8;335;324
2024-04-24 01:40;10;8.9;337;324
2024-04-24 01:50;9.9;10.1;338;327
2024-04-24 02:00;9.8;10.1;340;339
2024-04-24 02:10;10.1;8.2;338;324
2024-04-24 02:20;10.3;12;337;312
2024-04-24 02:30;10.6;9.3;335;304
2024-04-24 02:40;10.8;7.9;333;305
2024-04-24 02:50;11.1;9.5;332;314
2024-04-24 03:00;11.3;9.8;330;325
2024-04-24 03:10;11.3;9.3;330;325
2024-04-24 03:20;11.3;12.3;330;332
2024-04-24 03:30;11.3;12.6;330;321
2024-04-24 03:40;11.3;6.7;330;315
2024-04-24 03:50;11.3;10;330;322
2024-04-24 04:00;11.3;11.4;330;332
2024-04-24 04:10;11.2;11.3;330;341
2024-04-24 04:20;11.1;11.9;330;341
2024-04-24 04:30;11.1;12.3;330;328
2024-04-24 04:40;11;9.6;330;324
2024-04-24 04:50;10.9;11.2;330;318
2024-04-24 05:00;10.8;10.6;330;307
2024-04-24 05:10;11;9.6;332;313
2024-04-24 05:20;11.1;12.1;333;314
2024-04-24 05:30;11.3;11.4;335;329
2024-04-24 05:40;11.5;11.2;337;321
2024-04-24 05:50;11.6;11.5;338;329
2024-04-24 06:00;11.8;11.1;340;332
2024-04-24 06:10;11.9;11.1;340;331
2024-04-24 06:20;12;;340;
2024-04-24 06:30;12.1;;340;
2024-04-24 06:40;12.2;;340;
2024-04-24 06:50;12.3;;340;
2024-04-24 07:00;12.4;;340;
2024-04-24 07:10;12.3;;340;
2024-04-24 07:20;12.2;;340;
2024-04-24 07:30;12.1;;340;
2024-04-24 07:40;12;;340;
2024-04-24 07:50;11.9;;340;
2024-04-24 08:00;11.8;;340;
2024-04-24 08:10;11.8;;340;
2024-04-24 08:20;11.8;;340;
2024-04-24 08:30;11.8;;340;
2024-04-24 08:40;11.8;;340;
2024-04-24 08:50;11.8;;340;
2024-04-24 09:00;11.8;;340;
2024-04-24 09:10;11.9;;340;
2024-04-24 09:20;12;;340;
2024-04-24 09:30;12.1;;340;
2024-04-24 09:40;12.2;;340;
2024-04-24 09:50;12.3;;340;
2024-04-24 10:00;12.4;;340;
2024-04-24 10:10;12.3;;340;
2024-04-24 10:20;12.2;;340;
2024-04-24 10:30;12.1;;340;
2024-04-24 10:40;12;;340;
2024-04-24 10:50;11.9;;340;
2024-04-24 11:00;11.8;;340;
2024-04-24 11:10;11.8;;340;
2024-04-24 11:20;11.8;;340;
2024-04-24 11:30;11.8;;340;
2024-04-24 11:40;11.8;;340;
2024-04-24 11:50;11.8;;340;
2024-04-24 12:00;11.8;;340;
2024-04-24 12:10;11.8;;340;
2024-04-24 12:20;11.8;;340;
2024-04-24 12:30;11.8;;340;
2024-04-24 12:40;11.8;;340;
2024-04-24 12:50;11.8;;340;
2024-04-24 13:00;11.8;;340;
2024-04-24 13:10;11.8;;340;
2024-04-24 13:20;11.8;;340;
2024-04-24 13:30;11.8;;340;
2024-04-24 13:40;11.8;;340;
2024-04-24 13:50;11.8;;340;
2024-04-24 14:00;11.8;;340;
2024-04-24 14:10;11.8;;340;
2024-04-24 14:20;11.8;;340;
2024-04-24 14:30;11.8;;340;
2024-04-24 14:40;11.8;;340;
2024-04-24 14:50;11.8;;340;
2024-04-24 15:00;11.8;;340;
2024-04-24 15:10;11.8;;340;
2024-04-24 15:20;11.8;;340;
2024-04-24 15:30;11.8;;340;
2024-04-24 15:40;11.8;;340;
2024-04-24 15:50;11.8;;340;
2024-04-24 16:00;11.8;;340;
2024-04-24 16:10;11.8;;340;
2024-04-24 16:20;11.8;;340;
2024-04-24 16:30;11.8;;340;
2024-04-24 16:40;11.8;;340;
2024-04-24 16:50;11.8;;340;
2024-04-24 17:00;11.8;;340;
2024-04-24 17:10;11.7;;340;
2024-04-24 17:20;11.6;;340;
2024-04-24 17:30;11.6;;340;
2024-04-24 17:40;11.5;;340;
2024-04-24 17:50;11.4;;340;
2024-04-24 18:00;11.3;;340;
2024-04-24 18:10;11.2;;340;
2024-04-24 18:20;11.1;;340;
2024-04-24 18:30;11.1;;340;
2024-04-24 18:40;11;;340;
2024-04-24 18:50;10.9;;340;
2024-04-24 19:00;10.8;;340;
2024-04-24 19:10;10.8;;340;
2024-04-24 19:20;10.8;;340;
2024-04-24 19:30;10.8;;340;
2024-04-24 19:40;10.8;;340;
2024-04-24 19:50;10.8;;340;
2024-04-24 20:00;10.8;;340;
2024-04-24 20:10;10.6;;340;
2024-04-24 20:20;10.5;;340;
2024-04-24 20:30;10.3;;340;
2024-04-24 20:40;10.1;;340;
2024-04-24 20:50;10;;340;
2024-04-24 21:00;9.8;;340;
2024-04-24 21:10;9.7;;340;
2024-04-24 21:20;9.6;;340;
2024-04-24 21:30;9.6;;340;
2024-04-24 21:40;9.5;;340;
2024-04-24 21:50;9.4;;340;
2024-04-24 22:00;9.3;;340;
2024-04-24 22:10;9.1;;340;
2024-04-24 22:20;8.9;;340;
2024-04-24 22:30;8.8;;340;
2024-04-24 22:40;8.6;;340;
2024-04-24 22:50;8.4;;340;
2024-04-24 23:00;8.2;;340;
2024-04-24 23:10;8.2;;338;
2024-04-24 23:20;8.2;;337;
2024-04-24 23:30;8.2;;335;
2024-04-24 23:40;8.2;;333;
2024-04-24 23:50;8.2;;332;
2024-04-25 00:00;8.2;;330;
2024-04-25 00:10;8.1;;330;
2024-04-25 00:20;8;;330;
2024-04-25 00:30;8;;330;
2024-04-25 00:40;7.9;;330;
2024-04-25 00:50;7.8;;330;
2024-04-25 01:00;7.7;;330;
2024-04-25 01:10;7.7;;328;
2024-04-25 01:20;7.7;;327;
2024-04-25 01:30;7.7;;325;
2024-04-25 01:40;7.7;;323;
2024-04-25 01:50;7.7;;322;
2024-04-25 02:00;7.7;;320;
2024-04-25 02:10;7.7;;320;
2024-04-25 02:20;7.7;;320;
2024-04-25 02:30;7.7;;320;
2024-04-25 02:40;7.7;;320;
2024-04-25 02:50;7.7;;320;
2024-04-25 03:00;7.7;;320;
2024-04-25 03:10;7.7;;318;
2024-04-25 03:20;7.7;;317;
2024-04-25 03:30;7.7;;315;
2024-04-25 03:40;7.7;;313;
2024-04-25 03:50;7.7;;312;
2024-04-25 04:00;7.7;;310;
2024-04-25 04:10;7.7;;310;
2024-04-25 04:20;7.7;;310;
2024-04-25 04:30;7.7;;310;
2024-04-25 04:40;7.7;;310;
2024-04-25 04:50;7.7;;310;
2024-04-25 05:00;7.7;;310;
2024-04-25 05:10;7.6;;310;
2024-04-25 05:20;7.5;;310;
2024-04-25 05:30;7.5;;310;
2024-04-25 05:40;7.4;;310;
2024-04-25 05:50;7.3;;310;
2024-04-25 06:00;7.2;;310;
2024-04-25 06:10;7.1;;308;
2024-04-25 06:20;7;;307;
2024-04-25 06:30;7;;305;
2024-04-25 06:40;6.9;;303;
2024-04-25 06:50;6.8;;302;
2024-04-25 07:00;6.7;;300;
2024-04-25 07:10;6.7;;298;
2024-04-25 07:20;6.7;;297;
2024-04-25 07:30;6.7;;295;
2024-04-25 07:40;6.7;;293;
2024-04-25 07:50;6.7;;292;
2024-04-25 08:00;6.7;;290;
2024-04-25 08:10;6.7;;288;
2024-04-25 08:20;6.7;;287;
2024-04-25 08:30;6.7;;285;
2024-04-25 08:40;6.7;;283;
2024-04-25 08:50;6.7;;282;
2024-04-25 09:00;6.7;;280;
2024-04-25 09:10;6.7;;278;
2024-04-25 09:20;6.7;;277;
2024-04-25 09:30;6.7;;275;
2024-04-25 09:40;6.7;;273;
2024-04-25 09:50;6.7;;272;
2024-04-25 10:00;6.7;;270;
2024-04-25 10:10;6.8;;268;
2024-04-25 10:20;6.9;;267;
2024-04-25 10:30;7;;265;
2024-04-25 10:40;7;;263;
2024-04-25 10:50;7.1;;262;
2024-04-25 11:00;7.2;;260;
2024-04-25 11:10;7.2;;257;
2024-04-25 11:20;7.2;;253;
2024-04-25 11:30;7.2;;250;
2024-04-25 11:40;7.2;;247;
2024-04-25 11:50;7.2;;243;
2024-04-25 12:00;7.2;;240;
2024-04-25 12:10;7.3;;238;
2024-04-25 12:20;7.4;;237;
2024-04-25 12:30;7.5;;235;
2024-04-25 12:40;7.5;;233;
2024-04-25 12:50;7.6;;232;
2024-04-25 13:00;7.7;;230;
2024-04-25 13:10;7.9;;228;
2024-04-25 13:20;8.1;;227;
2024-04-25 13:30;8.3;;225;
2024-04-25 13:40;8.4;;223;
2024-04-25 13:50;8.6;;222;
2024-04-25 14:00;8.8;;220;
2024-04-25 14:10;8.9;;220;
2024-04-25 14:20;9;;220;
2024-04-25 14:30;9.1;;220;
2024-04-25 14:40;9.1;;220;
2024-04-25 14:50;9.2;;220;
2024-04-25 15:00;9.3;;220;
2024-04-25 15:10;9.4;;222;
2024-04-25 15:20;9.5;;223;
2024-04-25 15:30;9.6;;225;
2024-04-25 15:40;9.6;;227;
2024-04-25 15:50;9.7;;228;
2024-04-25 16:00;9.8;;230;
2024-04-25 16:10;9.9;;230;
2024-04-25 16:20;10;;230;
2024-04-25 16:30;10.1;;230;
2024-04-25 16:40;10.1;;230;
2024-04-25 16:50;10.2;;230;
2024-04-25 17:00;10.3;;230;
2024-04-25 17:10;10;;233;
2024-04-25 17:20;9.6;;237;
2024-04-25 17:30;9.3;;240;
2024-04-25 17:40;8.9;;243;
2024-04-25 17:50;8.6;;247;
2024-04-25 18:00;8.2;;250;
2024-04-25 18:10;8;;253;
2024-04-25 18:20;7.9;;257;
2024-04-25 18:30;7.7;;260;
2024-04-25 18:40;7.5;;263;
2024-04-25 18:50;7.4;;267;
2024-04-25 19:00;7.2;;270;
2024-04-25 19:10;7.3;;275;
2024-04-25 19:20;7.4;;280;
2024-04-25 19:30;7.5;;285;
2024-04-25 19:40;7.5;;290;
2024-04-25 19:50;7.6;;295;
2024-04-25 20:00;7.7;;300;
2024-04-25 20:10;7.6;;300;
2024-04-25 20:20;7.4;;300;
2024-04-25 20:30;7.3;;300;
2024-04-25 20:40;7;;300;
2024-04-25 20:50;6.8;;300;
2024-04-25 21:00;6.7;;300;
2024-04-25 21:10;6.7;;306;
2024-04-25 21:20;6.7;;304;
2024-04-25 21:30;6.7;;301;
2024-04-25 21:40;6.7;;299;
2024-04-25 21:50;6.7;;296;
2024-04-25 22:00;6.7;;294;
2024-04-25 22:10;6.8;;293;
2024-04-25 22:20;6.9;;292;
2024-04-25 22:30;7;;291;
2024-04-25 22:40;7;;291;
2024-04-25 22:50;7.1;;290;
2024-04-25 23:00;7.2;;289;
2024-04-25 23:10;7.2;;289;
2024-04-25 23:20;7.3;;288;
2024-04-25 23:30;7.3;;288;
2024-04-25 23:40;7.3;;287;
2024-04-25 23:50;7.4;;287;
2024-04-26 00:00;7.4;;286;
2024-04-26 00:10;7.5;;286;
2024-04-26 00:20;7.5;;285;
2024-04-26 00:30;7.6;;285;
2024-04-26 00:40;7.5;;284;
2024-04-26 00:50;7.6;;284;
2024-04-26 01:00;7.6;;284;
2024-04-26 01:10;7.7;;284;
2024-04-26 01:20;7.7;;284;
2024-04-26 01:30;7.8;;284;
2024-04-26 01:40;7.8;;284;
2024-04-26 01:50;7.8;;284;
2024-04-26 02:00;7.9;;284;
2024-04-26 02:10;8;;285;
2024-04-26 02:20;8;;286;
2024-04-26 02:30;8.1;;287;
2024-04-26 02:40;8.1;;288;
2024-04-26 02:50;8.2;;290;
2024-04-26 03:00;8.2;;291;
2024-04-26 03:10;8.2;;292;
2024-04-26 03:20;8.2;;292;
2024-04-26 03:30;8.2;;293;
2024-04-26 03:40;8.2;;294;
2024-04-26 03:50;8.1;;295;
2024-04-26 04:00;8.1;;296;
2024-04-26 04:10;8;;296;
2024-04-26 04:20;7.9;;296;
2024-04-26 04:30;7.8;;297;
2024-04-26 04:40;7.8;;297;
2024-04-26 04:50;7.7;;297;
2024-04-26 05:00;7.6;;298;
2024-04-26 05:10;7.5;;298;
2024-04-26 05:20;7.4;;298;
2024-04-26 05:30;7.3;;299;
2024-04-26 05:40;7.3;;299;
2024-04-26 05:50;7.2;;299;
2024-04-26 06:00;7.1;;300;
2024-04-26 06:10;7;;300;
2024-04-26 06:20;6.9;;300;
2024-04-26 06:30;6.8;;300;
2024-04-26 06:40;6.7;;301;
2024-04-26 06:50;6.6;;301;
2024-04-26 07:00;6.5;;301;
2024-04-26 07:10;6.4;;302;
2024-04-26 07:20;6.3;;304;
2024-04-26 07:30;6.2;;305;
2024-04-26 07:40;6.1;;306;
2024-04-26 07:50;6;;308;
2024-04-26 08:00;5.9;;309;
2024-04-26 08:10;5.7;;310;
2024-04-26 08:20;5.5;;311;
2024-04-26 08:30;5.3;;311;
2024-04-26 08:40;5.1;;312;
2024-04-26 08:50;4.9;;313;
2024-04-26 09:00;4.7;;313;
2024-04-26 09:10;4.7;;313;
2024-04-26 09:20;4.6;;313;
2024-04-26 09:30;4.6;;313;
2024-04-26 09:40;4.5;;313;
2024-04-26 09:50;4.5;;313;
2024-04-26 10:00;4.4;;312;
2024-04-26 10:10;4.3;;311;
2024-04-26 10:20;4.2;;310;
2024-04-26 10:30;4.1;;309;
2024-04-26 10:40;4;;308;
2024-04-26 10:50;3.9;;307;
2024-04-26 11:00;3.8;;306;
2024-04-26 11:10;3.8;;306;
2024-04-26 11:20;3.7;;305;
2024-04-26 11:30;3.6;;304;
2024-04-26 11:40;3.5;;304;
2024-04-26 11:50;3.4;;303;
2024-04-26 12:00;3.4;;302;
2024-04-26 12:10;3.3;;302;
2024-04-26 12:20;3.2;;302;
2024-04-26 12:30;3.1;;301;
2024-04-26 12:40;3;;301;
2024-04-26 12:50;2.9;;301;
2024-04-26 13:00;2.8;;300;
2024-04-26 13:10;2.8;;300;
2024-04-26 13:20;2.7;;299;
2024-04-26 13:30;2.6;;299;
2024-04-26 13:40;2.5;;298;
2024-04-26 13:50;2.5;;297;
2024-04-26 14:00;2.4;;297;
2024-04-26 14:10;2.3;;295;
2024-04-26 14:20;2.3;;293;
2024-04-26 14:30;2.2;;291;
2024-04-26 14:40;2.2;;289;
2024-04-26 14:50;2.1;;286;
2024-04-26 15:00;2.1;;284;
2024-04-26 15:10;2.1;;287;
2024-04-26 15:20;2.1;;290;
2024-04-26 15:30;2.1;;292;
2024-04-26 15:40;2.2;;295;
2024-04-26 15:50;2.2;;297;
2024-04-26 16:00;2.2;;300;
2024-04-26 16:10;2.3;;306;
2024-04-26 16:20;2.4;;312;
2024-04-26 16:30;2.5;;318;
2024-04-26 16:40;2.6;;324;
2024-04-26 16:50;2.7;;329;
2024-04-26 17:00;2.8;;335;
2024-04-26 17:10;2.8;;338;
2024-04-26 17:20;2.8;;340;
2024-04-26 17:30;2.9;;342;
2024-04-26 17:40;2.9;;344;
2024-04-26 17:50;3;;346;
2024-04-26 18:00;3;;349;
2024-04-26 18:10;3;;291;
2024-04-26 18:20;3;;233;
2024-04-26 18:30;3;;175;
2024-04-26 18:40;3.1;;117;
2024-04-26 18:50;3.1;;59;
2024-04-26 19:00;3.1;;1;
2024-04-26 19:10;3;;2;
2024-04-26 19:20;2.9;;2;
2024-04-26 19:30;2.8;;2;
2024-04-26 19:40;2.7;;2;
2024-04-26 19:50;2.6;;2;
2024-04-26 20:00;2.6;;3;
2024-04-26 20:10;2.5;;6;
2024-04-26 20:20;2.4;;10;
2024-04-26 20:30;2.4;;13;
2024-04-26 20:40;2.3;;17;
2024-04-26 20:50;2.2;;20;
2024-04-26 21:00;2.2;;24;
2024-04-26 21:10;2.3;;30;
2024-04-26 21:20;2.4;;37;
2024-04-26 21:30;2.5;;43;
2024-04-26 21:40;2.7;;50;
2024-04-26 21:50;2.8;;57;
2024-04-26 22:00;2.9;;63;
2024-04-26 22:10;3.1;;66;
2024-04-26 22:20;3.2;;68;
2024-04-26 22:30;3.4;;70;
2024-04-26 22:40;3.5;;72;
2024-04-26 22:50;3.7;;75;
2024-04-26 23:00;3.8;;77;
2024-04-26 23:10;3.8;;75;
2024-04-26 23:20;3.8;;74;
2024-04-26 23:30;3.8;;72;
2024-04-26 23:40;3.8;;70;
2024-04-26 23:50;3.8;;69;
2024-04-27 00:00;3.7;;67;
2024-04-27 00:10;3.7;;66;
2024-04-27 00:20;3.6;;64;
2024-04-27 00:30;3.6;;62;
2024-04-27 00:40;3.5;;60;
2024-04-27 00:50;3.5;;58;
2024-04-27 01:00;3.4;;57;
2024-04-27 01:10;3.5;;59;
2024-04-27 01:20;3.5;;61;
2024-04-27 01:30;3.6;;63;
2024-04-27 01:40;3.6;;66;
2024-04-27 01:50;3.7;;68;
2024-04-27 02:00;3.7;;70;
2024-04-27 02:10;3.8;;71;
2024-04-27 02:20;3.9;;72;
2024-04-27 02:30;4;;73;
2024-04-27 02:40;4.1;;74;
2024-04-27 02:50;4.2;;75;
2024-04-27 03:00;4.3;;76;
2024-04-27 03:10;4.3;;77;
2024-04-27 03:20;4.2;;79;
2024-04-27 03:30;4.2;;80;
2024-04-27 03:40;4.2;;82;
2024-04-27 03:50;4.1;;84;
2024-04-27 04:00;4.1;;85;
2024-04-27 04:10;4.1;;86;
2024-04-27 04:20;4.1;;87;
2024-04-27 04:30;4.1;;88;
2024-04-27 04:40;4.1;;88;
2024-04-27 04:50;4.1;;89;
2024-04-27 05:00;4.1;;90;
2024-04-27 05:10;4;;91;
2024-04-27 05:20;4;;92;
2024-04-27 05:30;4;;92;
2024-04-27 05:40;4;;93;
2024-04-27 05:50;4;;94;
2024-04-27 06:00;4;;95;
2024-04-27 06:10;4;;96;
2024-04-27 06:20;4;;98;
2024-04-27 06:30;3.9;;100;
2024-04-27 06:40;3.9;;101;
2024-04-27 06:50;3.9;;103;
2024-04-27 07:00;3.9;;104;
2024-04-27 07:10;3.9;;106;
2024-04-27 07:20;3.9;;107;
2024-04-27 07:30;3.9;;108;
2024-04-27 07:40;3.8;;109;
2024-04-27 07:50;3.8;;111;
2024-04-27 08:00;3.8;;112;
2024-04-27 08:10;3.8;;112;
2024-04-27 08:20;3.7;;112;
2024-04-27 08:30;3.7;;113;
2024-04-27 08:40;3.6;;113;
2024-04-27 08:50;3.6;;114;
2024-04-27 09:00;3.5;;114;
2024-04-27 09:10;3.5;;114;
2024-04-27 09:20;3.5;;115;
2024-04-27 09:30;3.4;;115;
2024-04-27 09:40;3.4;;115;
2024-04-27 09:50;3.3;;116;
2024-04-27 10:00;3.3;;116;
2024-04-27 10:10;3.2;;117;
2024-04-27 10:20;3.2;;117;
2024-04-27 10:30;3.1;;117;
2024-04-27 10:40;3.1;;118;
2024-04-27 10:50;3.1;;118;
2024-04-27 11:00;3;;118;
2024-04-27 11:10;2.9;;119;
2024-04-27 11:20;2.8;;120;
2024-04-27 11:30;2.7;;120;
2024-04-27 11:40;2.6;;121;
2024-04-27 11:50;2.5;;121;
2024-04-27 12:00;2.4;;122;
2024-04-27 12:10;2.3;;122;
2024-04-27 12:20;2.2;;123;
2024-04-27 12:30;2.1;;124;
2024-04-27 12:40;2;;124;
2024-04-27 12:50;1.9;;125;
2024-04-27 13:00;1.8;;125;
2024-04-27 13:10;1.7;;126;
2024-04-27 13:20;1.6;;126;
2024-04-27 13:30;1.5;;127;
2024-04-27 13:40;1.4;;128;
2024-04-27 13:50;1.3;;128;
2024-04-27 14:00;1.2;;129;
2024-04-27 14:10;1.3;;126;
2024-04-27 14:20;1.3;;123;
2024-04-27 14:30;1.4;;120;
2024-04-27 14:40;1.5;;117;
2024-04-27 14:50;1.5;;113;
2024-04-27 15:00;1.6;;110;
2024-04-27 15:10;1.6;;107;
2024-04-27 15:20;1.7;;104;
2024-04-27 15:30;1.8;;101;
2024-04-27 15:40;1.8;;98;
2024-04-27 15:50;1.9;;95;
2024-04-27 16:00;2;;92;
2024-04-27 16:10;2;;89;
2024-04-27 16:20;2.1;;86;
2024-04-27 16:30;2.1;;83;
2024-04-27 16:40;2.2;;80;
2024-04-27 16:50;2.3;;77;
2024-04-27 17:00;2.3;;74;
2024-04-27 17:10;2.6;;74;
2024-04-27 17:20;2.8;;74;
2024-04-27 17:30;3;;74;
2024-04-27 17:40;3.2;;74;
2024-04-27 17:50;3.4;;74;
2024-04-27 18:00;3.6;;74;
2024-04-27 18:10;3.8;;74;
2024-04-27 18:20;4;;74;
2024-04-27 18:30;4.2;;74;
2024-04-27 18:40;4.5;;74;
2024-04-27 18:50;4.7;;74;
2024-04-27 19:00;4.9;;74;
2024-04-27 19:10;5.1;;74;
2024-04-27 19:20;5.3;;74;
2024-04-27 19:30;5.5;;74;
2024-04-27 19:40;5.7;;74;
2024-04-27 19:50;5.9;;74;
2024-04-27 20:00;6.1;;74;
2024-04-27 20:10;6.2;;76;
2024-04-27 20:20;6.2;;77;
2024-04-27 20:30;6.3;;78;
2024-04-27 20:40;6.3;;79;
2024-04-27 20:50;6.4;;80;
2024-04-27 21:00;6.4;;82;
2024-04-27 21:10;6.5;;83;